| time (UTC) | temp F | wind direction | speed MPH | gust MPH | rain 1hr in | rain 24hr in | rain mn in | humidity % | barometer mb |
| 20260510033041 | 64 | 175 | 0.0 | 5.0 | 0.00 | 0.00 | 0.00 | 57 | 1030.4 |
| 20260510031605 | 64 | 61 | 0.0 | 3.0 | 0.00 | 0.00 | 0.00 | 60 | 1030.4 |
| 20260510030037 | 63 | 227 | 0.0 | 5.0 | 0.00 | 0.00 | 0.00 | 61 | 1030.5 |
| 20260510024537 | 63 | 202 | 0.0 | 3.0 | 0.00 | 0.00 | 0.00 | 61 | 1030.7 |
| 20260510023044 | 63 | 283 | 1.0 | 3.0 | 0.00 | 0.00 | 0.00 | 62 | 1030.9 |
| 20260510021536 | 63 | 269 | 0.0 | 0.0 | 0.00 | 0.00 | 0.00 | 63 | 1031.1 |
| 20260510020030 | 62 | 84 | 0.0 | 0.0 | 0.00 | 0.00 | 0.00 | 64 | 1031.3 |
| 20260510014529 | 62 | 190 | 0.0 | 0.0 | 0.00 | 0.00 | 0.00 | 64 | 1031.6 |
| 20260510013028 | 62 | 171 | 0.0 | 0.0 | 0.00 | 0.00 | 0.00 | 65 | 1031.7 |
| 20260510011527 | 61 | 55 | 0.0 | 0.0 | 0.00 | 0.00 | 0.00 | 67 | 1031.8 |
| 20260510010029 | 61 | 55 | 0.0 | 0.0 | 0.00 | 0.00 | 0.00 | 67 | 1031.8 |
| 20260510004523 | 60 | 172 | 0.0 | 4.0 | 0.00 | 0.00 | 0.00 | 69 | 1031.8 |
| 20260510003023 | 60 | 211 | 1.0 | 4.0 | 0.00 | 0.00 | 0.00 | 70 | 1031.7 |
| 20260510001520 | 59 | 158 | 1.0 | 3.0 | 0.00 | 0.00 | 0.00 | 73 | 1031.7 |
| 20260510000017 | 59 | 204 | 0.0 | 0.0 | 0.00 | 0.00 | 0.00 | 75 | 1031.7 |
| 20260509234514 | 58 | 187 | 1.0 | 4.0 | 0.00 | 0.00 | 0.00 | 81 | 1031.7 |
| 20260509233012 | 58 | 233 | 0.0 | 1.0 | 0.00 | 0.00 | 0.00 | 85 | 1031.7 |
| 20260509231509 | 57 | 261 | 0.0 | 1.0 | 0.00 | 0.00 | 0.00 | 88 | 1031.7 |
| 20260509230009 | 57 | 310 | 0.0 | 0.0 | 0.00 | 0.00 | 0.00 | 89 | 1031.6 |
| 20260509224507 | 56 | 310 | 0.0 | 1.0 | 0.00 | 0.00 | 0.00 | 90 | 1031.6 |
| 20260509223006 | 56 | 310 | 0.0 | 0.0 | 0.00 | 0.00 | 0.00 | 90 | 1031.4 |
| 20260509221506 | 55 | 310 | 0.0 | 0.0 | 0.00 | 0.00 | 0.00 | 90 | 1031.1 |
| 20260509220005 | 55 | 310 | 0.0 | 2.0 | 0.00 | 0.00 | 0.00 | 90 | 1031.0 |
| 20260509214504 | 55 | 309 | 0.0 | 1.0 | 0.00 | 0.00 | 0.00 | 91 | 1030.9 |
| 20260509213002 | 55 | 314 | 0.0 | 1.0 | 0.00 | 0.00 | 0.00 | 91 | 1030.5 |
| 20260509211615 | 55 | 304 | 0.0 | 0.0 | 0.00 | 0.00 | 0.00 | 91 | 1030.3 |
| 20260509204604 | 55 | 275 | 0.0 | 0.0 | 0.00 | 0.00 | 0.00 | 91 | 1030.1 |
| 20260509203100 | 55 | 275 | 0.0 | 0.0 | 0.00 | 0.00 | 0.00 | 91 | 1030.0 |
| 20260509201556 | 55 | 275 | 0.0 | 0.0 | 0.00 | 0.00 | 0.00 | 90 | 1029.9 |
| 20260509200053 | 55 | 275 | 0.0 | 0.0 | 0.00 | 0.00 | 0.00 | 90 | 1029.8 |
| 20260509194553 | 56 | 275 | 0.0 | 0.0 | 0.00 | 0.00 | 0.00 | 90 | 1029.6 |
| 20260509193050 | 56 | 275 | 0.0 | 0.0 | 0.00 | 0.00 | 0.00 | 91 | 1029.5 |
| 20260509191549 | 56 | 275 | 0.0 | 0.0 | 0.00 | 0.00 | 0.00 | 91 | 1029.3 |
| 20260509190052 | 56 | 275 | 0.0 | 0.0 | 0.00 | 0.00 | 0.00 | 91 | 1029.2 |
| 20260509184548 | 56 | 275 | 0.0 | 0.0 | 0.00 | 0.00 | 0.00 | 91 | 1029.1 |
| 20260509183048 | 56 | 275 | 0.0 | 0.0 | 0.00 | 0.00 | 0.00 | 91 | 1028.9 |
| 20260509181603 | 56 | 275 | 0.0 | 2.0 | 0.00 | 0.00 | 0.00 | 91 | 1028.8 |
| 20260509180046 | 56 | 240 | 0.0 | 0.0 | 0.00 | 0.00 | 0.00 | 91 | 1028.8 |
| 20260509174551 | 56 | 240 | 0.0 | 0.0 | 0.00 | 0.00 | 0.00 | 91 | 1028.8 |
| 20260509173047 | 56 | 240 | 0.0 | 0.0 | 0.00 | 0.00 | 0.00 | 91 | 1028.7 |
| 20260509171548 | 56 | 240 | 0.0 | 0.0 | 0.00 | 0.00 | 0.00 | 91 | 1028.6 |
| 20260509170044 | 56 | 240 | 0.0 | 0.0 | 0.00 | 0.00 | 0.00 | 91 | 1028.8 |
| 20260509164543 | 56 | 240 | 0.0 | 0.0 | 0.00 | 0.00 | 0.00 | 91 | 1028.9 |
| 20260509163054 | 56 | 240 | 0.0 | 0.0 | 0.00 | 0.00 | 0.00 | 91 | 1028.9 |
| 20260509161542 | 56 | 241 | 0.0 | 0.0 | 0.00 | 0.00 | 0.00 | 91 | 1028.9 |
| 20260509160040 | 56 | 240 | 0.0 | 0.0 | 0.00 | 0.00 | 0.00 | 90 | 1029.0 |
| 20260509154540 | 57 | 241 | 0.0 | 0.0 | 0.00 | 0.00 | 0.00 | 90 | 1029.0 |
| 20260509153037 | 57 | 241 | 0.0 | 1.0 | 0.00 | 0.00 | 0.00 | 90 | 1029.1 |
| 20260509151538 | 57 | 203 | 0.0 | 0.0 | 0.00 | 0.00 | 0.00 | 89 | 1029.1 |
| 20260509150038 | 57 | 203 | 0.0 | 0.0 | 0.00 | 0.00 | 0.00 | 89 | 1029.1 |
| 20260509144537 | 57 | 203 | 0.0 | 0.0 | 0.00 | 0.00 | 0.00 | 89 | 1029.1 |
| 20260509143036 | 57 | 203 | 0.0 | 0.0 | 0.00 | 0.00 | 0.00 | 89 | 1029.1 |
| 20260509141536 | 57 | 203 | 1.0 | 4.0 | 0.00 | 0.00 | 0.00 | 88 | 1029.1 |
| 20260509140035 | 57 | 203 | 0.0 | 1.0 | 0.00 | 0.00 | 0.00 | 88 | 1029.0 |
| 20260509134538 | 57 | 200 | 0.0 | 0.0 | 0.00 | 0.00 | 0.00 | 87 | 1029.1 |
| 20260509133033 | 57 | 200 | 0.0 | 0.0 | 0.00 | 0.00 | 0.00 | 87 | 1029.1 |
| 20260509131535 | 57 | 200 | 0.0 | 0.0 | 0.00 | 0.00 | 0.00 | 87 | 1029.1 |
| 20260509130033 | 57 | 200 | 0.0 | 0.0 | 0.00 | 0.00 | 0.00 | 87 | 1029.1 |
| 20260509124533 | 57 | 200 | 0.0 | 0.0 | 0.00 | 0.00 | 0.00 | 87 | 1029.0 |
| 20260509123033 | 57 | 200 | 0.0 | 0.0 | 0.00 | 0.00 | 0.00 | 87 | 1029.2 |
| 20260509121538 | 57 | 200 | 0.0 | 0.0 | 0.00 | 0.00 | 0.00 | 86 | 1029.2 |
| 20260509120035 | 57 | 200 | 0.0 | 0.0 | 0.00 | 0.00 | 0.00 | 86 | 1029.2 |
| 20260509114534 | 57 | 200 | 0.0 | 0.0 | 0.00 | 0.00 | 0.00 | 86 | 1029.2 |
| 20260509113030 | 57 | 200 | 0.0 | 0.0 | 0.00 | 0.00 | 0.00 | 86 | 1028.9 |
| 20260509111529 | 57 | 200 | 0.0 | 0.0 | 0.00 | 0.00 | 0.00 | 86 | 1028.8 |
| 20260509110029 | 56 | 200 | 1.0 | 4.0 | 0.00 | 0.00 | 0.00 | 87 | 1028.7 |
| 20260509104534 | 56 | 190 | 0.0 | 0.0 | 0.00 | 0.00 | 0.00 | 87 | 1028.7 |
| 20260509103029 | 56 | 189 | 0.0 | 0.0 | 0.00 | 0.00 | 0.00 | 87 | 1028.6 |
| 20260509101529 | 56 | 168 | 0.0 | 0.0 | 0.00 | 0.00 | 0.00 | 87 | 1028.6 |
| 20260509100027 | 57 | 142 | 0.0 | 0.0 | 0.00 | 0.00 | 0.00 | 86 | 1028.6 |
| 20260509094526 | 58 | 142 | 0.0 | 0.0 | 0.00 | 0.00 | 0.00 | 86 | 1028.5 |
| 20260509093025 | 58 | 142 | 0.0 | 0.0 | 0.00 | 0.00 | 0.00 | 86 | 1028.5 |
| 20260509091532 | 59 | 142 | 0.0 | 0.0 | 0.00 | 0.00 | 0.00 | 85 | 1028.3 |
| 20260509090024 | 59 | 142 | 0.0 | 0.0 | 0.00 | 0.00 | 0.00 | 86 | 1028.3 |
| 20260509084528 | 59 | 142 | 0.0 | 0.0 | 0.00 | 0.00 | 0.00 | 85 | 1028.1 |
| 20260509083024 | 59 | 142 | 0.0 | 0.0 | 0.00 | 0.00 | 0.00 | 85 | 1028.0 |
| 20260509081523 | 59 | 142 | 0.0 | 0.0 | 0.00 | 0.00 | 0.00 | 85 | 1027.8 |
| 20260509080030 | 59 | 142 | 0.0 | 0.0 | 0.00 | 0.00 | 0.00 | 85 | 1027.6 |
| 20260509074525 | 60 | 149 | 0.0 | 0.0 | 0.00 | 0.00 | 0.00 | 84 | 1027.5 |
| 20260509073038 | 60 | 182 | 0.0 | 4.0 | 0.00 | 0.00 | 0.00 | 83 | 1027.3 |
| 20260509071522 | 61 | 130 | 0.0 | 3.0 | 0.00 | 0.00 | 0.00 | 82 | 1027.2 |
| 20260509070023 | 61 | 165 | 0.0 | 4.0 | 0.00 | 0.00 | 0.00 | 81 | 1027.2 |
| 20260509064523 | 62 | 189 | 0.0 | 3.0 | 0.00 | 0.00 | 0.00 | 80 | 1027.1 |
| 20260509063028 | 62 | 263 | 1.0 | 4.0 | 0.00 | 0.00 | 0.00 | 79 | 1027.1 |
| 20260509061524 | 62 | 261 | 0.0 | 3.0 | 0.00 | 0.00 | 0.00 | 78 | 1027.0 |
| 20260509060022 | 62 | 273 | 0.0 | 4.0 | 0.00 | 0.00 | 0.00 | 77 | 1026.9 |
| 20260509054529 | 63 | 279 | 1.0 | 5.0 | 0.00 | 0.00 | 0.00 | 76 | 1026.9 |
| 20260509053020 | 64 | 246 | 1.0 | 4.0 | 0.00 | 0.00 | 0.00 | 76 | 1026.8 |
| 20260509051521 | 64 | 237 | 2.0 | 6.0 | 0.00 | 0.00 | 0.00 | 75 | 1026.8 |
| 20260509050032 | 64 | 211 | 2.0 | 7.0 | 0.00 | 0.00 | 0.00 | 74 | 1026.8 |
| 20260509044520 | 65 | 225 | 1.0 | 5.0 | 0.00 | 0.00 | 0.00 | 73 | 1026.9 |
| 20260509043036 | 64 | 238 | 1.0 | 4.0 | 0.00 | 0.00 | 0.00 | 73 | 1026.8 |
| 20260509041519 | 64 | 210 | 1.0 | 4.0 | 0.00 | 0.00 | 0.00 | 71 | 1026.9 |
| 20260509040017 | 64 | 308 | 1.0 | 3.0 | 0.00 | 0.00 | 0.00 | 73 | 1026.9 |
| 20260509034516 | 63 | 213 | 0.0 | 3.0 | 0.00 | 0.00 | 0.00 | 74 | 1027.0 |